TimeHST,TemperatureF,Dew PointF,Humidity,Sea Level PressureIn,VisibilityMPH,Wind Direction,Wind SpeedMPH,Gust SpeedMPH,PrecipitationIn,Events,Conditions,WindDirDegrees,DateUTC
12:56 AM,75.9,68.0,76,29.93,10.0,NNE,8.1,-,N/A,,Clear,30,2013-11-09 10:56:00
1:56 AM,73.9,68.0,82,29.92,10.0,Calm,Calm,-,N/A,,Clear,0,2013-11-09 11:56:00
2:56 AM,72.0,66.9,84,29.91,10.0,SE,5.8,-,N/A,,Clear,140,2013-11-09 12:56:00
3:56 AM,72.0,64.9,78,29.90,10.0,East,3.5,-,N/A,,Clear,80,2013-11-09 13:56:00
4:56 AM,73.0,64.9,76,29.91,10.0,NE,4.6,-,N/A,,Clear,50,2013-11-09 14:56:00
5:56 AM,73.0,64.0,73,29.91,10.0,Calm,Calm,-,N/A,,Clear,0,2013-11-09 15:56:00
6:56 AM,73.0,61.0,66,29.93,10.0,ENE,5.8,-,N/A,,Clear,60,2013-11-09 16:56:00
7:56 AM,78.1,61.0,56,29.94,10.0,Calm,Calm,-,N/A,,Clear,0,2013-11-09 17:56:00
8:30 AM,80.6,62.6,54,29.93,6.2,WSW,3.5,-,N/A,,Partly Cloudy,250,2013-11-09 18:30:00
8:56 AM,80.1,63.0,56,29.94,10.0,SW,4.6,-,N/A,,Clear,230,2013-11-09 18:56:00
9:56 AM,81.0,64.0,56,29.94,10.0,Calm,Calm,-,N/A,,Clear,0,2013-11-09 19:56:00
10:56 AM,82.0,66.0,58,29.93,10.0,WSW,5.8,-,N/A,,Scattered Clouds,250,2013-11-09 20:56:00
11:56 AM,82.0,66.9,60,29.91,10.0,NW,9.2,-,N/A,,Mostly Cloudy,320,2013-11-09 21:56:00
12:56 PM,82.0,68.0,62,29.89,10.0,North,15.0,-,N/A,,Mostly Cloudy,10,2013-11-09 22:56:00
1:56 PM,75.0,70.0,84,29.87,9.0,NW,6.9,-,0.07,Rain,Light Rain,320,2013-11-09 23:56:00
2:56 PM,78.1,68.0,71,29.86,10.0,Calm,Calm,-,0.00,,Overcast,0,2013-11-10 00:56:00
3:15 PM,77.0,69.8,78,29.85,6.2,West,4.6,-,0.00,Rain,Light Rain,280,2013-11-10 01:15:00
3:56 PM,78.1,70.0,76,29.87,10.0,South,6.9,-,0.00,,Overcast,180,2013-11-10 01:56:00
4:40 PM,73.4,68.0,83,29.87,1.2,Calm,Calm,-,0.08,Rain,Rain,0,2013-11-10 02:40:00
4:43 PM,73.4,68.0,83,29.87,0.5,West,3.5,-,0.15,Rain,Heavy Rain,260,2013-11-10 02:43:00
4:52 PM,73.4,69.8,88,29.87,1.0,Calm,Calm,-,0.18,Rain,Rain,0,2013-11-10 02:52:00
4:54 PM,73.4,69.8,88,29.87,-9999.0,Calm,Calm,-,0.18,Rain,Rain,0,2013-11-10 02:54:00
4:56 PM,73.0,69.1,87,29.88,3.0,Calm,Calm,-,0.18,Rain,Rain,0,2013-11-10 02:56:00
5:56 PM,73.0,69.1,87,29.88,10.0,Calm,Calm,-,0.00,,Mostly Cloudy,0,2013-11-10 03:56:00
6:56 PM,73.9,69.1,85,29.88,10.0,NNE,11.5,18.4,N/A,,Clear,20,2013-11-10 04:56:00
7:56 PM,72.0,69.1,91,29.92,10.0,SSE,3.5,-,0.02,,Overcast,150,2013-11-10 05:56:00
8:56 PM,73.0,69.1,87,29.92,10.0,Calm,Calm,-,N/A,,Overcast,0,2013-11-10 06:56:00
9:56 PM,72.0,69.1,91,29.93,10.0,SE,5.8,-,N/A,,Overcast,140,2013-11-10 07:56:00
10:56 PM,-9999,-9999,N/A,29.93,10.0,East,3.5,-,N/A,,Overcast,90,2013-11-10 08:56:00
11:56 PM,-9999,-9999,N/A,29.92,10.0,Calm,Calm,-,0.00,,Scattered Clouds,0,2013-11-10 09:56:00